Location: Platte
(43.3870°N, 98.8440°W)
Time: 14:08:49
(UTC-05:00)

Landsat 7 - Visible Passes

Search period start: 27 March 2015 00:00
Search period end: 06 April 2015 00:00
Orbit: 702 x 703 km, 98.2° (Epoch: 27 March)

Date Brightness Start Highest point End Pass type
(mag) Time Alt. Az. Time Alt. Az. Time Alt. Az.
27 Mar 6.7 00:22:04 12° NW 00:22:04 12° NW 00:22:37 10° NW visible
27 Mar 5.9 21:47:29 13° NE 21:47:29 13° NE 21:48:58 10° NNE visible
27 Mar 5.7 23:26:22 26° NNW 23:26:22 26° NNW 23:28:28 10° NNW visible
28 Mar 5.4 22:30:38 25° NNE 22:30:38 25° NNE 22:33:08 10° N visible
29 Mar 6.5 00:09:31 16° NW 00:09:31 16° NW 00:10:45 10° NW visible
29 Mar 6.0 21:34:55 11° NE 21:34:55 11° NE 21:35:36 10° NE visible
29 Mar 5.4 23:13:48 31° N 23:13:48 31° N 23:16:16 10° NNW visible
30 Mar 5.4 22:18:05 22° NE 22:18:05 22° NE 22:20:39 10° N visible
30 Mar 6.1 23:56:57 21° NW 23:56:57 21° NW 23:58:46 10° NNW visible
31 Mar 5.1 23:01:14 34° N 23:01:14 34° N 23:04:01 10° N visible
01 Apr 5.5 22:05:31 19° NE 22:05:31 19° NE 22:08:06 10° NNE visible
01 Apr 5.8 23:44:24 27° NW 23:44:24 27° NW 23:46:42 10° NNW visible
02 Apr 5.0 22:48:41 34° NNE 22:48:41 34° NNE 22:51:42 10° N visible
03 Apr 6.6 00:27:33 14° NW 00:27:33 14° NW 00:28:31 10° NW visible
03 Apr 5.7 21:52:57 16° NE 21:52:57 16° NE 21:55:24 10° NNE visible
03 Apr 5.3 23:31:50 34° NNW 23:31:50 34° NNW 23:34:34 10° NNW visible
04 Apr 5.0 22:36:07 32° NE 22:36:07 32° NE 22:39:19 10° N visible
05 Apr 6.3 00:14:59 18° NW 00:14:59 18° NW 00:16:42 10° NW visible
05 Apr 5.9 21:40:24 12° ENE 21:40:26 12° ENE 21:42:24 10° NE visible
05 Apr 4.9 23:19:16 41° NNW 23:19:16 41° NNW 23:22:23 10° NNW visible
